Wilmington, NC

7:37 PM EDT on August 28, 2016 (GMT -0400)
Wilmington International

Weather History for KILM - January, 2014

Change the Weather History Date:

Sunday, January 12, 2014

  Actual Average Record
Temperature  
Mean Temperature 50 °F 46 °F  
Max Temperature 61 °F 56 °F 78 °F (2013)
Min Temperature 39 °F 35 °F 12 °F (1981)
Degree Days  
Heating Degree Days 15 19  
Month to date heating degree days 224 228  
Since 1 July heating degree days 1024 1112  
Cooling Degree Days 0 0  
Month to date cooling degree days 3 0  
Year to date cooling degree days 3 0  
Moisture  
Dew Point 39 °F    
Average Humidity 61    
Maximum Humidity 90    
Minimum Humidity 32    
Precipitation  
Precipitation T in 0.12 in 1.85 in (1964)
Month to date precipitation 1.76 1.44  
Year to date precipitation 1.76 1.44  
Snow  
Snow 0.00 in 0.00 in 1.00 in (1962)
Month to date snowfall 0.0 0.2  
Since 1 July snowfall T 1.0  
Snow Depth 0.00 in    
Sea Level Pressure  
Sea Level Pressure 30.03 in    
Wind  
Wind Speed 8 mph (West)    
Max Wind Speed 22 mph    
Max Gust Speed 29 mph    
Visibility 10 miles    
Events Rain    
T = Trace of Precipitation, MM = Missing Value Source: NWS Daily Summary

Daily Weather History Graph

Daily Weather History Graph

Search for Another Location

Airport or City:

Trip Planner

Search our weather history database for the weather conditions in past years. The results will help you decide how hot, cold, wet, or windy it might be!

Date:

Astronomy

Jan. 12, 2014 Rise Set
Actual Time 7:18 AM EST 5:22 PM EST
Civil Twilight 6:50 AM EST 5:49 PM EST
Nautical Twilight 6:19 AM EST 6:20 PM EST
Astronomical Twilight 5:49 AM EST 6:50 PM EST
Moon 2:47 PM EST (1/12) 4:16 AM EST (1/12)
Length of Visible Light 10h 58m
Length of Day
10h 04m
Waxing Gibbous, 89% of the Moon is Illuminated
Jan 12
Waxing Gibbous
Jan 15
Full
Jan 24
Last Quarter
Jan 30
New
Feb 6
First Quarter

Hourly Weather History & Observations

Time (EST) Temp. Dew Point Humidity Pressure Visibility Wind Dir Wind Speed Gust Speed Precip Events Conditions
12:53 AM 61.0 °F 57.0 °F 87% 29.73 in 10.0 mi West 12.7 mph - N/A   Overcast
1:53 AM 60.1 °F 51.1 °F 72% 29.76 in 10.0 mi West 12.7 mph 20.7 mph 0.00 in Rain Light Rain
2:53 AM 57.0 °F 48.0 °F 72% 29.78 in 10.0 mi West 12.7 mph - 0.00 in   Overcast
3:53 AM 55.9 °F 46.0 °F 69% 29.81 in 10.0 mi West 11.5 mph 20.7 mph N/A   Clear
4:53 AM 53.1 °F 45.0 °F 74% 29.85 in 10.0 mi West 11.5 mph - N/A   Clear
5:53 AM 51.1 °F 43.0 °F 74% 29.89 in 10.0 mi West 8.1 mph - N/A   Clear
6:53 AM 51.1 °F 41.0 °F 68% 29.95 in 10.0 mi West 12.7 mph - N/A   Clear
7:53 AM 50.0 °F 41.0 °F 71% 29.99 in 10.0 mi WNW 9.2 mph - N/A   Clear
8:53 AM 53.1 °F 39.9 °F 61% 30.05 in 10.0 mi WNW 11.5 mph - N/A   Clear
9:53 AM 54.0 °F 36.0 °F 51% 30.09 in 10.0 mi WNW 12.7 mph 23.0 mph N/A   Clear
10:53 AM 57.0 °F 34.0 °F 42% 30.10 in 10.0 mi WNW 12.7 mph - N/A   Clear
11:53 AM 57.0 °F 30.9 °F 37% 30.08 in 10.0 mi West 16.1 mph - N/A   Clear
12:53 PM 59.0 °F 30.9 °F 35% 30.07 in 10.0 mi West 9.2 mph - N/A   Clear
1:53 PM 60.1 °F 32.0 °F 35% 30.07 in 10.0 mi WNW 13.8 mph - N/A   Clear
2:53 PM 61.0 °F 30.9 °F 32% 30.09 in 10.0 mi West 9.2 mph - N/A   Clear
3:53 PM 60.1 °F 30.9 °F 33% 30.10 in 10.0 mi West 10.4 mph - N/A   Clear
4:53 PM 57.9 °F 30.9 °F 36% 30.14 in 10.0 mi West 8.1 mph - N/A   Clear
5:53 PM 52.0 °F 35.1 °F 53% 30.16 in 10.0 mi WSW 3.5 mph - N/A   Clear
6:53 PM 48.9 °F 36.0 °F 61% 30.19 in 10.0 mi Calm Calm - N/A   Clear
7:53 PM 45.0 °F 37.0 °F 74% 30.19 in 10.0 mi Calm Calm - N/A   Clear
8:53 PM 42.1 °F 37.9 °F 85% 30.20 in 10.0 mi Calm Calm - N/A   Clear
9:53 PM 41.0 °F 37.0 °F 86% 30.22 in 10.0 mi Calm Calm - N/A   Clear
10:53 PM 39.9 °F 36.0 °F 86% 30.21 in 10.0 mi Calm Calm - N/A   Clear
11:53 PM 39.9 °F 37.0 °F 89% 30.20 in 10.0 mi Calm Calm - N/A   Clear